CW0214 Abrantes PT current weather conditions

sailwx.info

Wind from 029 at 1 knots gusting 6

Air temperature 21.1° C
Dewpoint 17.3° C

Last reported at 2018-Jun-24 20:09 UTC.
Time now 2018-Jun-24 20:29 UTC

Location: N 39°28' W 008°12'.
View on Google Maps.

See reports from other nearby stations

  
Tides and Currents Weather Stations Pressure Air Temp Water Temp Dewpoint Dewpoint Depression Visibility Wind Speed Wind Dir Waves Ship Positions
date/time (UTC)wind fromknots sea level pressurealtimeterstation pressurevisibilityair tempwater tempwave heightnotes
2018-Jun-24 20:09 029 1 gusting 6 21.1
2018-Jun-24 20:04 244 4 gusting 8 21.1
2018-Jun-24 19:59 253 2 gusting 10 21.1
2018-Jun-24 19:54 285 1 gusting 11 21.1
2018-Jun-24 19:49 279 5 gusting 12 21.1
2018-Jun-24 19:44 293 5 gusting 10 21.7
2018-Jun-24 19:39 214 6 gusting 12 21.7
2018-Jun-24 19:34 308 4 gusting 13 22.2
2018-Jun-24 19:29 254 5 gusting 13 22.2
2018-Jun-24 19:24 274 1 gusting 8 22.8
2018-Jun-24 19:19 245 5 gusting 11 22.8
2018-Jun-24 19:14 300 5 gusting 11 23.3
2018-Jun-24 19:09 302 0 gusting 10 23.3
2018-Jun-24 19:04 259 2 gusting 12 23.9
2018-Jun-24 18:59 187 1 gusting 5 23.9
2018-Jun-24 18:54 204 1 gusting 8 24.4
2018-Jun-24 18:49 246 1 gusting 8 24.4
2018-Jun-24 18:44 300 1 gusting 7 24.4
2018-Jun-24 18:39 211 2 gusting 10 25.0
2018-Jun-24 18:34 235 5 gusting 13 25.0
2018-Jun-24 18:29 279 4 gusting 12 25.6
2018-Jun-24 18:24 273 5 gusting 13 25.6
2018-Jun-24 18:19 353 2 gusting 17 25.6
2018-Jun-24 18:14 247 4 gusting 10 26.1
2018-Jun-24 18:09 265 5 gusting 13 26.1
2018-Jun-24 18:04 269 6 gusting 13 26.7
2018-Jun-24 17:59 265 2 gusting 8 26.7
2018-Jun-24 17:54 302 4 gusting 11 26.7
2018-Jun-24 17:49 268 4 gusting 10 27.2
2018-Jun-24 17:44 266 4 gusting 12 27.2
2018-Jun-24 17:39 154 3 gusting 10 27.2
2018-Jun-24 17:34 249 6 gusting 11 27.8
2018-Jun-24 17:29 267 2 gusting 12 27.8
2018-Jun-24 17:24 282 4 gusting 8 27.8
2018-Jun-24 17:19 317 5 gusting 10 28.3
2018-Jun-24 17:14 262 5 gusting 10 28.3
2018-Jun-24 17:09 200 1 gusting 10 28.9
2018-Jun-24 17:04 258 4 gusting 10 28.9
2018-Jun-24 16:59 281 3 gusting 13 28.9
2018-Jun-24 16:54 264 5 gusting 13 29.4
2018-Jun-24 16:49 258 5 gusting 11 29.4
2018-Jun-24 16:44 281 6 gusting 12 29.4
2018-Jun-24 16:39 267 5 gusting 10 30.0
2018-Jun-24 16:34 264 4 gusting 10 30.0
2018-Jun-24 16:29 238 2 gusting 8 30.0
2018-Jun-24 16:24 274 5 gusting 12 30.6
2018-Jun-24 16:19 278 5 gusting 12 30.6
2018-Jun-24 16:14 288 4 gusting 12 31.1
2018-Jun-24 16:09 276 6 gusting 17 31.1
2018-Jun-24 16:04 254 1 gusting 8 31.7
2018-Jun-24 15:59 241 6 gusting 11 31.7
2018-Jun-24 15:54 207 5 gusting 10 31.7
2018-Jun-24 15:49 203 5 gusting 10 31.7
2018-Jun-24 15:44 317 2 gusting 8 31.7
2018-Jun-24 15:39 268 5 gusting 10 31.7
2018-Jun-24 15:34 266 5 gusting 8 31.7
2018-Jun-24 15:29 273 6 gusting 11 31.7
2018-Jun-24 15:24 270 2 gusting 12 31.7
2018-Jun-24 15:19 273 5 gusting 10 31.7
2018-Jun-24 15:14 236 5 gusting 13 31.7
2018-Jun-24 15:09 296 5 gusting 10 31.7
2018-Jun-24 15:04 296 4 gusting 12 31.7
2018-Jun-24 14:59 288 2 gusting 13 31.7
2018-Jun-24 14:54 234 6 gusting 10 31.7
2018-Jun-24 14:49 268 6 gusting 11 32.2
2018-Jun-24 14:44 232 5 gusting 8 31.7
2018-Jun-24 14:39 315 3 gusting 11 31.7
2018-Jun-24 14:34 220 6 gusting 10 31.7
2018-Jun-24 14:29 226 4 gusting 10 31.7
2018-Jun-24 14:24 244 4 gusting 12 31.7
2018-Jun-24 14:19 269 6 gusting 11 32.2
2018-Jun-24 14:14 221 4 gusting 10 32.2
2018-Jun-24 14:09 263 4 gusting 7 31.7
2018-Jun-24 14:04 236 5 gusting 11 31.7
2018-Jun-24 13:59 224 1 gusting 6 31.7
2018-Jun-24 13:54 255 2 gusting 10 31.7
2018-Jun-24 13:49 282 4 gusting 10 31.7
2018-Jun-24 13:44 276 4 gusting 10 31.7
2018-Jun-24 13:39 274 2 gusting 8 31.7
2018-Jun-24 13:34 293 4 gusting 8 31.7
2018-Jun-24 13:29 309 2 gusting 8 32.2
2018-Jun-24 13:24 287 5 gusting 10 32.8
2018-Jun-24 13:19 229 1 gusting 7 32.8
2018-Jun-24 13:14 246 1 gusting 7 32.8
2018-Jun-24 13:09 295 4 gusting 10 32.8
2018-Jun-24 13:04 250 0 gusting 6 32.2
2018-Jun-24 12:59 252 4 gusting 7 32.2
2018-Jun-24 12:54 273 5 gusting 8 32.2
2018-Jun-24 12:49 263 2 gusting 6 32.2
2018-Jun-24 12:44 241 5 gusting 8 32.2
2018-Jun-24 12:39 259 32.2
2018-Jun-24 12:34 244 1 gusting 6 31.7
2018-Jun-24 12:29 154 2 gusting 6 31.7
2018-Jun-24 12:24 229 4 gusting 8 31.7
2018-Jun-24 12:19 231 0 gusting 5 31.1
2018-Jun-24 12:14 130 0 gusting 7 30.6
2018-Jun-24 12:09 269 6 gusting 8 30.0
2018-Jun-24 12:04 290 0 gusting 6 30.0
2018-Jun-24 11:59 321 4 gusting 8 29.4
2018-Jun-24 11:54 306 0 gusting 8 29.4
2018-Jun-24 11:49 274 4 gusting 7 30.0
2018-Jun-24 11:44 306 4 gusting 8 30.6
2018-Jun-24 11:39 260 3 gusting 7 30.0
2018-Jun-24 11:34 292 0 gusting 4 30.6
2018-Jun-24 11:29 252 4 gusting 8 30.0
2018-Jun-24 11:24 295 2 gusting 6 30.0
2018-Jun-24 11:19 184 1 gusting 5 29.4
2018-Jun-24 11:14 294 2 gusting 5 30.0
2018-Jun-24 11:09 223 1 gusting 4 30.0
2018-Jun-24 11:04 337 4 gusting 5 30.0
2018-Jun-24 10:59 171 2 gusting 5 30.0
2018-Jun-24 10:54 238 4 gusting 6 30.0
2018-Jun-24 10:49 180 0 gusting 5 29.4
2018-Jun-24 10:44 230 28.9
2018-Jun-24 10:39 249 2 gusting 6 28.9
2018-Jun-24 10:34 273 2 gusting 6 28.9
2018-Jun-24 10:29 278 1 gusting 6 28.9
2018-Jun-24 10:24 250 0 gusting 4 28.3
2018-Jun-24 10:19 282 1 gusting 5 28.3
2018-Jun-24 10:14 252 0 gusting 5 28.3
2018-Jun-24 10:09 209 28.3
2018-Jun-24 10:04 213 1 gusting 4 27.8
2018-Jun-24 09:59 180 1 gusting 4 27.8
2018-Jun-24 09:54 254 0 gusting 5 27.2
2018-Jun-24 09:49 219 0 gusting 4 27.2
2018-Jun-24 09:44 210 2 gusting 6 27.2
2018-Jun-24 09:39 193 2 gusting 4 26.7
2018-Jun-24 09:34 242 1 gusting 6 26.1
2018-Jun-24 09:29 220 1 gusting 2 26.1
2018-Jun-24 09:24 248 1 gusting 6 25.6
2018-Jun-24 09:19 228 25.6
2018-Jun-24 09:14 190 1 gusting 5 25.0
2018-Jun-24 09:09 225 0 gusting 4 25.0
2018-Jun-24 09:04 202 3 gusting 5 25.0
2018-Jun-24 08:59 296 1 gusting 5 25.0
2018-Jun-24 08:54 244 25.0
2018-Jun-24 08:49 244 24.4
2018-Jun-24 08:44 242 0 gusting 2 24.4
2018-Jun-24 08:39 244 1 gusting 5 23.9
2018-Jun-24 08:34 254 2 gusting 5 23.3
2018-Jun-24 08:29 277 2 gusting 4 23.3
2018-Jun-24 08:24 277 3 gusting 6 23.3
2018-Jun-24 08:19 240 4 gusting 6 23.3
2018-Jun-24 08:14 238 1 gusting 5 22.8
2018-Jun-24 08:09 240 4 gusting 6 22.8
2018-Jun-24 08:04 249 1 gusting 2 22.8
2018-Jun-24 07:59 270 22.8
2018-Jun-24 07:54 271 22.2
2018-Jun-24 07:49 308 21.7
2018-Jun-24 07:44 333 2 gusting 4 21.7
2018-Jun-24 07:39 351 21.7
2018-Jun-24 07:34 011 21.7
2018-Jun-24 07:29 011 21.7
2018-Jun-24 07:24 272 21.7
2018-Jun-24 07:19 272 21.1
2018-Jun-24 07:14 272 21.1
2018-Jun-24 07:09 272 20.6
2018-Jun-24 07:04 272 20.0
2018-Jun-24 06:59 272 20.0
2018-Jun-24 06:54 272 19.4
2018-Jun-24 06:49 272 19.4
2018-Jun-24 06:44 272 19.4
2018-Jun-24 06:39 272 18.9
2018-Jun-24 06:34 272 18.9
2018-Jun-24 06:29 272 18.9
2018-Jun-24 06:24 272 18.9
2018-Jun-24 06:19 272 18.3
2018-Jun-24 06:14 272 18.3
2018-Jun-24 06:09 272 18.3
2018-Jun-24 06:04 272 18.3
2018-Jun-24 05:59 272 18.3
2018-Jun-24 05:54 272 18.3
2018-Jun-24 05:49 272 18.3
2018-Jun-24 05:44 272 18.3
2018-Jun-24 05:39 272 18.3
2018-Jun-24 05:34 272 18.3
2018-Jun-24 05:29 272 18.3
2018-Jun-24 05:24 272 18.3
2018-Jun-24 05:19 272 18.3
2018-Jun-24 05:14 272 18.3
2018-Jun-24 05:09 272 18.3
2018-Jun-24 05:04 272 18.3
2018-Jun-24 04:59 272 18.9
2018-Jun-24 04:54 272 18.9
2018-Jun-24 04:49 272 18.9
2018-Jun-24 04:44 272 18.9
2018-Jun-24 04:39 272 18.9
2018-Jun-24 04:34 272 18.9
2018-Jun-24 04:29 272 18.9
2018-Jun-24 04:24 272 18.9
2018-Jun-24 04:19 272 18.9
2018-Jun-24 04:14 272 18.9
2018-Jun-24 04:09 272 18.9
2018-Jun-24 04:04 272 18.9
2018-Jun-24 03:59 272 18.9
2018-Jun-24 03:54 272 18.9
2018-Jun-24 03:49 272 18.9
2018-Jun-24 03:44 272 19.4
2018-Jun-24 03:39 272 19.4
2018-Jun-24 03:34 272 19.4
2018-Jun-24 03:29 272 19.4
2018-Jun-24 03:24 272 19.4
2018-Jun-24 03:19 272 19.4
2018-Jun-24 03:14 272 0 gusting 5 19.4
2018-Jun-24 03:09 257 19.4
2018-Jun-24 03:04 253 19.4
2018-Jun-24 02:59 253 19.4
2018-Jun-24 02:54 242 1 gusting 2 19.4
2018-Jun-24 02:49 261 0 gusting 7 19.4
2018-Jun-24 02:44 249 2 gusting 5 19.4
2018-Jun-24 02:39 248 19.4
2018-Jun-24 02:34 248 2 gusting 5 19.4
2018-Jun-24 02:29 279 0 gusting 4 19.4
2018-Jun-24 02:24 313 1 gusting 7 19.4
2018-Jun-24 02:19 250 1 gusting 6 19.4
2018-Jun-24 02:14 258 1 gusting 6 19.4
2018-Jun-24 02:09 244 19.4
2018-Jun-24 02:04 244 20.0
2018-Jun-24 01:59 244 0 gusting 5 20.0
2018-Jun-24 01:54 249 0 gusting 5 20.0
2018-Jun-24 01:49 267 2 gusting 7 20.0
2018-Jun-24 01:44 269 20.0
2018-Jun-24 01:39 269 0 gusting 4 20.0
2018-Jun-24 01:34 298 20.0
2018-Jun-24 01:29 300 20.0
2018-Jun-24 01:24 278 1 gusting 5 20.0
2018-Jun-24 01:19 229 2 gusting 6 20.0
2018-Jun-24 01:14 231 20.6
2018-Jun-24 01:09 232 0 gusting 4 20.6
2018-Jun-24 01:04 230 0 gusting 6 20.6
2018-Jun-24 00:59 220 0 gusting 5 20.6
2018-Jun-24 00:54 224 20.6
2018-Jun-24 00:49 281 1 gusting 6 20.6
2018-Jun-24 00:44 259 2 gusting 7 20.6
2018-Jun-24 00:39 283 0 gusting 6 20.6
2018-Jun-24 00:34 288 0 gusting 5 20.6
2018-Jun-24 00:29 277 3 gusting 6 20.6
2018-Jun-24 00:24 287 1 gusting 6 20.6
2018-Jun-24 00:19 248 0 gusting 5 20.6
2018-Jun-24 00:14 265 2 gusting 7 20.6
2018-Jun-24 00:09 253 3 gusting 7 20.6
2018-Jun-24 00:04 271 5 gusting 10 21.1
2018-Jun-23 23:59 281 4 gusting 8 21.1
2018-Jun-23 23:54 287 2 gusting 8 21.1
2018-Jun-23 23:49 263 1 gusting 6 21.1
2018-Jun-23 23:44 274 4 gusting 10 21.1
2018-Jun-23 23:39 292 0 gusting 10 21.1
2018-Jun-23 23:34 281 0 gusting 6 21.1
2018-Jun-23 23:29 309 2 gusting 6 21.7
2018-Jun-23 23:24 242 1 gusting 5 21.7
2018-Jun-23 23:19 249 21.7
2018-Jun-23 23:14 260 0 gusting 7 21.7
2018-Jun-23 23:09 297 2 gusting 8 21.7
2018-Jun-23 23:04 273 2 gusting 7 21.7
2018-Jun-23 22:59 279 1 gusting 7 21.7
2018-Jun-23 22:54 288 2 gusting 6 22.2
2018-Jun-23 22:49 279 4 gusting 8 22.2
2018-Jun-23 22:44 278 2 gusting 7 22.2
2018-Jun-23 22:39 253 2 gusting 10 22.2
2018-Jun-23 22:34 273 2 gusting 8 22.2
2018-Jun-23 22:29 280 2 gusting 10 22.8
2018-Jun-23 22:24 245 2 gusting 7 22.8
2018-Jun-23 22:19 290 2 gusting 8 22.8
2018-Jun-23 22:14 292 0 gusting 6 22.8
2018-Jun-23 22:09 258 3 gusting 6 22.8
2018-Jun-23 22:04 279 0 gusting 7 22.8
2018-Jun-23 21:59 300 1 gusting 6 22.8
2018-Jun-23 21:54 318 2 gusting 10 23.3
2018-Jun-23 21:49 292 1 gusting 10 23.3
2018-Jun-23 21:44 267 2 gusting 8 23.3
2018-Jun-23 21:39 280 0 gusting 6 23.3
2018-Jun-23 21:34 284 23.3
2018-Jun-23 21:29 338 3 gusting 6 23.3
2018-Jun-23 21:24 280 3 gusting 10 23.9
2018-Jun-23 21:19 298 4 gusting 10 23.9
2018-Jun-23 21:14 272 1 gusting 7 23.9
2018-Jun-23 21:09 252 0 gusting 6 23.9
2018-Jun-23 21:04 223 0 gusting 5 24.4
2018-Jun-23 20:59 279 1 gusting 13 24.4
2018-Jun-23 20:54 285 2 gusting 10 24.4
2018-Jun-23 20:49 304 1 gusting 13 24.4
2018-Jun-23 20:44 308 1 gusting 8 25.0
2018-Jun-23 20:39 292 2 gusting 10 25.0
2018-Jun-23 20:34 276 4 gusting 8 25.0
2018-Jun-23 20:29 247 4 gusting 12 25.6
2018-Jun-23 20:24 277 4 gusting 10 25.6
2018-Jun-23 20:19 299 0 gusting 5 25.6
2018-Jun-23 20:14 287 3 gusting 7 26.1
2018-Jun-23 20:09 266 4 gusting 7 26.1
2018-Jun-23 20:04 261 4 gusting 10 26.1
2018-Jun-23 19:59 267 4 gusting 8 26.7
2018-Jun-23 19:54 243 3 gusting 8 27.2
2018-Jun-23 19:49 291 5 gusting 10 27.2
2018-Jun-23 19:44 305 4 gusting 11 27.8
2018-Jun-23 19:39 250 2 gusting 10 27.8
2018-Jun-23 19:34 254 2 gusting 8 28.3
2018-Jun-23 19:29 272 2 gusting 11 28.9
2018-Jun-23 19:24 282 5 gusting 11 29.4
2018-Jun-23 19:19 268 3 gusting 6 30.0
2018-Jun-23 19:14 323 4 gusting 10 30.6
2018-Jun-23 19:09 283 2 gusting 10 31.1
2018-Jun-23 19:04 268 4 gusting 8 31.7
2018-Jun-23 18:59 268 6 gusting 11 32.2
2018-Jun-23 18:54 274 4 gusting 10 32.8
2018-Jun-23 18:49 242 4 gusting 7 33.3
2018-Jun-23 18:44 279 2 gusting 8 33.3
2018-Jun-23 18:39 233 2 gusting 6 33.9
2018-Jun-23 18:34 249 33.9
2018-Jun-23 18:29 248 0 gusting 5 33.9
2018-Jun-23 18:24 258 0 gusting 6 33.9
2018-Jun-23 18:19 229 33.9
2018-Jun-23 18:14 220 3 gusting 7 34.4
2018-Jun-23 18:09 251 3 gusting 10 34.4
2018-Jun-23 18:04 239 1 gusting 6 35.0
2018-Jun-23 17:59 213 0 gusting 2 35.0
2018-Jun-23 17:54 224 35.0
2018-Jun-23 17:49 253 0 gusting 5 35.0
2018-Jun-23 17:44 206 35.0
2018-Jun-23 17:39 206 1 gusting 6 35.0
2018-Jun-23 17:34 207 1 gusting 4 35.0
2018-Jun-23 17:29 211 35.0
2018-Jun-23 17:24 215 35.0
2018-Jun-23 17:19 215 34.4
2018-Jun-23 17:14 188 0 gusting 6 34.4
2018-Jun-23 17:09 284 0 gusting 6 34.4
2018-Jun-23 17:04 205 0 gusting 5 34.4
2018-Jun-23 16:59 242 0 gusting 7 34.4
2018-Jun-23 16:54 234 2 gusting 6 34.4
2018-Jun-23 16:49 195 0 gusting 6 34.4
2018-Jun-23 16:44 231 5 gusting 8 34.4
2018-Jun-23 16:39 246 4 gusting 6 34.4
2018-Jun-23 16:34 202 2 gusting 6 34.4
2018-Jun-23 16:29 205 1 gusting 7 34.4
2018-Jun-23 16:24 222 0 gusting 6 34.4
2018-Jun-23 16:19 203 2 gusting 6 34.4
2018-Jun-23 16:14 238 1 gusting 7 34.4
2018-Jun-23 16:09 176 1 gusting 6 34.4
2018-Jun-23 16:04 223 4 gusting 8 34.4
2018-Jun-23 15:59 154 2 gusting 8 34.4
2018-Jun-23 15:54 214 34.4
2018-Jun-23 15:49 213 1 gusting 7 34.4
2018-Jun-23 15:44 195 0 gusting 7 34.4
2018-Jun-23 15:39 244 1 gusting 10 34.4
2018-Jun-23 15:34 221 2 gusting 6 33.9
2018-Jun-23 15:29 210 4 gusting 7 33.9
2018-Jun-23 15:24 133 2 gusting 6 33.9
2018-Jun-23 15:19 182 2 gusting 6 33.9
2018-Jun-23 15:14 157 5 gusting 7 34.4
2018-Jun-23 15:09 223 2 gusting 7 33.9
2018-Jun-23 15:04 203 3 gusting 10 33.9
2018-Jun-23 14:59 182 2 gusting 7 33.9
2018-Jun-23 14:54 165 2 gusting 10 33.9
2018-Jun-23 14:49 173 6 gusting 8 33.9
2018-Jun-23 14:44 209 2 gusting 11 33.9
2018-Jun-23 14:39 180 6 gusting 11 33.9
2018-Jun-23 14:34 171 5 gusting 10 33.9
2018-Jun-23 14:29 191 33.9
2018-Jun-23 14:24 188 0 gusting 6 33.9
2018-Jun-23 14:19 137 0 gusting 8 33.9
2018-Jun-23 14:14 184 6 gusting 10 33.9
2018-Jun-23 14:09 195 4 gusting 10 33.9
2018-Jun-23 14:04 167 3 gusting 7 33.9
2018-Jun-23 13:59 255 1 gusting 6 33.9
2018-Jun-23 13:54 169 4 gusting 8 33.9
2018-Jun-23 13:49 170 3 gusting 6 33.9
2018-Jun-23 13:44 179 5 gusting 8 33.9
2018-Jun-23 13:39 248 33.9
2018-Jun-23 13:34 219 4 gusting 7 33.9
2018-Jun-23 13:29 225 3 gusting 7 33.9
2018-Jun-23 13:24 206 5 gusting 8 33.9
2018-Jun-23 13:19 203 6 gusting 11 33.9
2018-Jun-23 13:14 188 5 gusting 10 33.9
2018-Jun-23 13:09 211 4 gusting 6 33.9
2018-Jun-23 13:04 194 0 gusting 6 33.3
2018-Jun-23 12:59 135 2 gusting 7 33.3
2018-Jun-23 12:54 216 2 gusting 8 32.8
2018-Jun-23 12:49 175 6 gusting 10 32.8
2018-Jun-23 12:44 223 1 gusting 6 32.8
2018-Jun-23 12:39 168 3 gusting 7 32.8
2018-Jun-23 12:34 137 3 gusting 6 32.8
2018-Jun-23 12:29 346 32.2
2018-Jun-23 12:24 310 2 gusting 8 32.2
2018-Jun-23 12:19 284 4 gusting 6 32.8
2018-Jun-23 12:14 208 1 gusting 6 33.3
2018-Jun-23 12:09 191 2 gusting 6 33.3
2018-Jun-23 12:04 185 1 gusting 7 33.3
2018-Jun-23 11:59 204 3 gusting 10 33.3
2018-Jun-23 11:54 207 32.8
2018-Jun-23 11:49 197 1 gusting 4 32.8
2018-Jun-23 11:44 214 1 gusting 2 32.2
2018-Jun-23 11:39 214 1 gusting 4 32.2
2018-Jun-23 11:34 214 1 gusting 4 31.7
2018-Jun-23 11:29 224 1 gusting 4 31.7
2018-Jun-23 11:24 177 1 gusting 5 31.1
2018-Jun-23 11:19 189 3 gusting 6 31.7
2018-Jun-23 11:14 225 2 gusting 4 31.1
2018-Jun-23 11:09 221 1 gusting 7 31.1
2018-Jun-23 11:04 209 4 gusting 7 31.7
2018-Jun-23 10:59 249 1 gusting 4 31.1
2018-Jun-23 10:54 249 0 gusting 4 30.6
2018-Jun-23 10:49 190 1 gusting 4 30.6
2018-Jun-23 10:44 191 0 gusting 4 30.6
2018-Jun-23 10:39 192 0 gusting 6 30.0
2018-Jun-23 10:34 167 1 gusting 5 30.0
2018-Jun-23 10:29 271 29.4
2018-Jun-23 10:24 271 2 gusting 5 29.4
2018-Jun-23 10:19 160 1 gusting 5 28.9
2018-Jun-23 10:14 161 0 gusting 5 30.0
2018-Jun-23 10:09 176 1 gusting 4 30.0
2018-Jun-23 10:04 176 1 gusting 2 29.4
2018-Jun-23 09:59 176 1 gusting 4 29.4
2018-Jun-23 09:54 191 1 gusting 6 28.9
2018-Jun-23 09:49 171 0 gusting 4 28.9
2018-Jun-23 09:44 184 28.9
2018-Jun-23 09:39 184 2 gusting 4 28.3
2018-Jun-23 09:34 216 0 gusting 4 27.8
2018-Jun-23 09:29 213 1 gusting 5 27.2
2018-Jun-23 09:24 179 2 gusting 5 27.2
2018-Jun-23 09:19 197 27.2
2018-Jun-23 09:14 180 1 gusting 5 27.2
2018-Jun-23 09:09 179 0 gusting 2 27.2
2018-Jun-23 09:04 180 27.2
2018-Jun-23 08:59 180 26.7
2018-Jun-23 08:54 180 2 gusting 4 26.7
2018-Jun-23 08:49 180 0 gusting 2 26.1
2018-Jun-23 08:44 180 0 gusting 1 25.6
2018-Jun-23 08:39 180 0 gusting 2 25.6
2018-Jun-23 08:34 180 0 gusting 2 25.6
2018-Jun-23 08:29 180 25.0
2018-Jun-23 08:24 180 24.4
2018-Jun-23 08:19 180 24.4
2018-Jun-23 08:14 180 2 gusting 5 23.9
2018-Jun-23 08:09 165 2 gusting 4 23.9
2018-Jun-23 08:04 165 23.9
2018-Jun-23 07:59 165 23.3
2018-Jun-23 07:54 165 1 gusting 4 22.8
2018-Jun-23 07:49 165 1 gusting 2 22.2
2018-Jun-23 07:44 165 1 gusting 4 22.2
2018-Jun-23 07:39 165 1 gusting 2 22.2
2018-Jun-23 07:34 166 1 gusting 4 22.2
2018-Jun-23 07:29 166 2 gusting 4 21.7
2018-Jun-23 07:24 166 2 gusting 4 21.7
2018-Jun-23 07:19 166 1 gusting 2 21.7
2018-Jun-23 07:14 165 21.7
2018-Jun-23 07:09 166 21.7
2018-Jun-23 07:04 166 21.1
2018-Jun-23 06:59 166 21.1
2018-Jun-23 06:54 166 0 gusting 1 20.6
2018-Jun-23 06:49 166 20.6
2018-Jun-23 06:44 166 2 gusting 5 20.6
2018-Jun-23 06:39 166 1 gusting 4 20.6
2018-Jun-23 06:34 317 0 gusting 2 20.6
2018-Jun-23 06:29 317 20.6
2018-Jun-23 06:24 317 20.6
2018-Jun-23 06:19 317 20.0
2018-Jun-23 06:14 317 20.0
2018-Jun-23 06:09 317 20.0
2018-Jun-23 06:04 317 20.0
2018-Jun-23 05:59 317 20.0
2018-Jun-23 05:54 317 20.0
2018-Jun-23 05:49 317 20.0
2018-Jun-23 05:44 317 20.0
2018-Jun-23 05:39 317 20.0
2018-Jun-23 05:34 317 20.0
2018-Jun-23 05:29 317 20.0
2018-Jun-23 05:24 317 20.0
2018-Jun-23 05:19 317 20.0
2018-Jun-23 05:14 317 20.0
2018-Jun-23 05:09 317 20.0
2018-Jun-23 05:04 317 20.0
2018-Jun-23 04:59 317 20.0
2018-Jun-23 04:54 317 20.0
2018-Jun-23 04:49 317 20.0
2018-Jun-23 04:44 317 20.0
2018-Jun-23 04:39 317 20.0
2018-Jun-23 04:34 317 2 gusting 4 20.0
2018-Jun-23 04:29 317 3 gusting 5 20.0
2018-Jun-23 04:24 267 20.0
2018-Jun-23 04:19 267 20.6
2018-Jun-23 04:14 267 20.6
2018-Jun-23 04:09 267 20.6
2018-Jun-23 04:04 267 20.6
2018-Jun-23 03:59 267 0 gusting 1 20.6
2018-Jun-23 03:54 267 20.6
2018-Jun-23 03:49 267 20.6
2018-Jun-23 03:44 267 20.6
2018-Jun-23 03:39 267 20.6
2018-Jun-23 03:34 267 20.6
2018-Jun-23 03:29 267 20.6
2018-Jun-23 03:24 267 21.1
2018-Jun-23 03:19 267 21.1
2018-Jun-23 03:14 267 21.1
2018-Jun-23 03:09 267 21.1
2018-Jun-23 03:04 267 21.1
2018-Jun-23 02:59 267 21.1
2018-Jun-23 02:54 267 21.1
2018-Jun-23 02:49 255 2 gusting 6 21.1
2018-Jun-23 02:44 266 2 gusting 6 21.1
2018-Jun-23 02:39 263 4 gusting 6 21.1
2018-Jun-23 02:34 235 4 gusting 6 21.1
2018-Jun-23 02:29 261 0 gusting 2 21.1
2018-Jun-23 02:24 277 21.1
2018-Jun-23 02:19 277 21.1
2018-Jun-23 02:14 276 0 gusting 6 21.1
2018-Jun-23 02:09 278 0 gusting 2 21.1
2018-Jun-23 02:04 278 0 gusting 5 21.1
2018-Jun-23 01:59 278 21.1
2018-Jun-23 01:54 278 1 gusting 5 21.1
2018-Jun-23 01:49 250 21.1
2018-Jun-23 01:44 250 0 gusting 4 21.1
2018-Jun-23 01:39 250 21.1
2018-Jun-23 01:34 247 21.1
2018-Jun-23 01:29 242 0 gusting 4 21.7
2018-Jun-23 01:24 251 21.7
2018-Jun-23 01:19 251 21.7
2018-Jun-23 01:14 251 21.7
2018-Jun-23 01:09 251 1 gusting 5 21.7
2018-Jun-23 01:04 254 1 gusting 5 21.7
2018-Jun-23 00:59 260 0 gusting 4 21.7
2018-Jun-23 00:54 269 21.7
2018-Jun-23 00:49 270 21.7
2018-Jun-23 00:44 270 21.7
2018-Jun-23 00:39 270 21.7
2018-Jun-23 00:34 275 1 gusting 5 21.7
2018-Jun-23 00:29 207 21.7
2018-Jun-23 00:24 303 21.7
2018-Jun-23 00:19 306 21.7
2018-Jun-23 00:14 305 0 gusting 4 21.7
2018-Jun-23 00:09 304 21.7
2018-Jun-23 00:04 304 21.7
2018-Jun-22 23:59 210 22.2
2018-Jun-22 23:54 210 22.2
2018-Jun-22 23:49 210 22.2
2018-Jun-22 23:44 259 0 gusting 4 22.2
2018-Jun-22 23:39 282 0 gusting 4 22.2
2018-Jun-22 23:34 222 22.2
2018-Jun-22 23:29 283 1 gusting 6 22.2
2018-Jun-22 23:24 269 22.2
2018-Jun-22 23:19 254 22.2
2018-Jun-22 23:14 281 22.2
2018-Jun-22 23:09 280 2 gusting 10 22.8
2018-Jun-22 23:04 255 22.8
2018-Jun-22 22:59 278 22.8
2018-Jun-22 22:54 219 2 gusting 7 22.8
2018-Jun-22 22:49 254 4 gusting 8 22.8
2018-Jun-22 22:44 275 4 gusting 8 22.8
2018-Jun-22 22:39 272 5 gusting 12 22.8
2018-Jun-22 22:34 257 1 gusting 7 22.8
2018-Jun-22 22:29 233 0 gusting 5 22.8
2018-Jun-22 22:24 286 1 gusting 6 22.8
2018-Jun-22 22:19 271 1 gusting 7 22.8
2018-Jun-22 22:14 277 2 gusting 7 22.8
2018-Jun-22 22:09 306 2 gusting 12 23.3
2018-Jun-22 22:04 270 4 gusting 7 23.3
2018-Jun-22 21:59 227 3 gusting 8 23.3
2018-Jun-22 21:54 265 1 gusting 6 23.3
2018-Jun-22 21:49 284 4 gusting 8 23.3
2018-Jun-22 21:44 293 3 gusting 8 23.3
2018-Jun-22 21:39 288 23.9
2018-Jun-22 21:34 290 2 gusting 7 23.9
2018-Jun-22 21:29 260 0 gusting 6 23.9
2018-Jun-22 21:24 323 0 gusting 7 23.9
2018-Jun-22 21:19 286 2 gusting 6 23.9
2018-Jun-22 21:14 278 2 gusting 8 23.9
2018-Jun-22 21:09 256 1 gusting 5 23.9
2018-Jun-22 21:04 199 1 gusting 8 23.9
2018-Jun-22 20:59 086 1 gusting 8 24.4
2018-Jun-22 20:54 252 24.4
2018-Jun-22 20:49 309 2 gusting 6 24.4
2018-Jun-22 20:44 215 2 gusting 11 24.4
2018-Jun-22 20:39 261 1 gusting 11 24.4
2018-Jun-22 20:34 271 4 gusting 8 24.4
2018-Jun-22 20:29 094 1 gusting 7 25.0
2018-Jun-22 20:24 272 0 gusting 5 25.0
2018-Jun-22 20:19 337 4 gusting 10 25.0
2018-Jun-22 20:14 298 2 gusting 7 25.0
2018-Jun-22 20:09 308 0 gusting 7 25.6
2018-Jun-22 20:04 272 2 gusting 8 25.6